WB5NHL-13 Weather Reports


time (UTC)temp
C
wind
direction
speed
KPH
gust
KPH
rain 1hr
cm
rain 24hr
cm
rain mn
cm
humidity
%
barometer
mb
20260505185525 28 0.0 0.0 0.00 0.00 0.00 45 1015.3
20260505184526 28 0.0 0.0 0.00 0.00 0.00 44 1015.5
20260505183531 28 0.0 0.0 0.00 0.00 0.00 44 1015.8
20260505182533 28 0.0 0.0 0.00 0.00 0.00 44 1015.9
20260505181537 28 0.0 0.0 0.00 0.00 0.00 44 1015.9
20260505180520 27 0.0 0.0 0.00 0.00 0.00 47 1016.1
20260505175523 28 0.0 0.0 0.00 0.00 0.00 46 1016.1
20260505174540 28 0.0 0.0 0.00 0.00 0.00 44 1015.9
20260505173517 26 0.0 0.0 0.00 0.00 0.00 50 1016.1
20260505172533 27 0.0 0.0 0.00 0.00 0.00 47 1016.1
20260505171516 28 0.0 0.0 0.00 0.00 0.00 46 1016.1
20260505170519 27 0.0 0.0 0.00 0.00 0.00 49 1016.2
20260505165522 26 0.0 0.0 0.00 0.00 0.00 50 1016.4
20260505164546 26 0.0 0.0 0.00 0.00 0.00 55 1016.4
20260505163528 25 0.0 0.0 0.00 0.00 0.00 61 1016.5
20260505162534 25 0.0 0.0 0.00 0.00 0.00 62 1016.5
20260505161516 24 0.0 0.0 0.00 0.00 0.00 65 1016.6
20260505160519 23 0.0 0.0 0.00 0.00 0.00 67 1016.7
20260505152531 22 0.0 0.0 0.00 0.00 0.00 74 1017.1
20260505151536 22 0.0 0.0 0.00 0.00 0.00 74 1017.1
20260505150518 21 0.0 0.0 0.00 0.00 0.00 75 1017.1
20260505140518 19 0.0 0.0 0.00 0.00 0.00 81 1016.7
20260505124524 16 0.0 0.0 0.00 0.00 0.00 92 1016.9
20260505123526 15 0.0 0.0 0.00 0.00 0.00 95 1016.8
20260505122530 15 0.0 0.0 0.00 0.00 0.00 97 1016.7
20260505121531 14 0.0 0.0 0.00 0.00 0.00 98 1016.6
20260505120516 14 0.0 0.0 0.00 0.00 0.00 99 1016.4
20260505115539 13 0.0 0.0 0.00 0.00 0.00 99 1016.2
20260505114522 13 0.0 0.0 0.00 0.00 0.00 99 1016.2
20260505113525 12 0.0 0.0 0.00 0.00 0.00 99 1016.3
20260505112521 12 0.0 0.0 0.00 0.00 0.00 99 1016.3
20260505111519 12 0.0 0.0 0.00 0.00 0.00 98 1016.2
20260505110515 12 0.0 0.0 0.00 0.00 0.00 98 1016.0
20260505101530 13 0.0 0.0 0.00 0.00 0.00 95 1015.9
20260505100532 13 0.0 0.0 0.00 0.00 0.00 95 1015.9
20260505095517 13 0.0 0.0 0.00 0.00 0.00 95 1015.8
20260505094520 13 0.0 0.0 0.00 0.00 0.00 94 1015.8
20260505093523 13 0.0 0.0 0.00 0.00 0.00 93 1015.7
20260505092526 13 0.0 0.0 0.00 0.00 0.00 93 1015.7
20260505091529 13 0.0 0.0 0.00 0.00 0.00 93 1015.7
20260505090533 13 0.0 0.0 0.00 0.00 0.00 92 1015.6
20260505085517 13 0.0 0.0 0.00 0.00 0.00 91 1015.6
20260505084520 13 0.0 0.0 0.00 0.00 0.00 89 1015.7
20260505083544 13 0.0 0.0 0.00 0.00 0.00 90 1015.5
20260505082608 14 0.0 0.0 0.00 0.00 0.00 89 1015.5
20260505081522 14 0.0 0.0 0.00 0.00 0.00 87 1015.5
20260505080519 14 0.0 0.0 0.00 0.00 0.00 87 1015.4
20260505075516 14 0.0 0.0 0.00 0.00 0.00 86 1015.3
20260505074519 15 0.0 0.0 0.00 0.00 0.00 85 1015.3
20260505073522 15 0.0 0.0 0.00 0.00 0.00 85 1015.2
20260505072526 15 0.0 0.0 0.00 0.00 0.00 85 1015.3
20260505071528 15 0.0 0.0 0.00 0.00 0.00 84 1015.4
20260505070531 15 0.0 0.0 0.00 0.00 0.00 83 1015.3
20260505065517 15 0.0 0.0 0.00 0.00 0.00 83 1015.2
20260505064539 15 0.0 0.0 0.00 0.00 0.00 81 1015.5
20260505063522 15 0.0 0.0 0.00 0.00 0.00 79 1015.5
20260505062546 15 0.0 0.0 0.00 0.00 0.00 79 1015.5
20260505061528 16 0.0 0.0 0.00 0.00 0.00 79 1015.4
20260505060531 16 0.0 0.0 0.00 0.00 0.00 77 1015.6
20260505055516 16 0.0 0.0 0.00 0.00 0.00 76 1015.5
20260505054519 16 0.0 0.0 0.00 0.00 0.00 76 1015.7
20260505053543 16 0.0 0.0 0.00 0.00 0.00 76 1015.8
20260505052524 16 0.0 0.0 0.00 0.00 0.00 75 1015.8
20260505051527 16 0.0 0.0 0.00 0.00 0.00 74 1015.8
20260505050524 17 0.0 0.0 0.00 0.00 0.00 74 1015.9
20260505041526 17 0.0 0.0 0.00 0.00 0.00 70 1015.9
20260505040529 17 0.0 0.0 0.00 0.00 0.00 69 1015.9
20260505035532 17 0.0 0.0 0.00 0.00 0.00 69 1015.7
20260505034517 17 0.0 0.0 0.00 0.00 0.00 69 1015.8
20260505033520 18 0.0 0.0 0.00 0.00 0.00 68 1015.9
20260505032542 18 0.0 0.0 0.00 0.00 0.00 68 1016.0
20260505031527 18 0.0 0.0 0.00 0.00 0.00 67 1016.0
20260505030528 18 0.0 0.0 0.00 0.00 0.00 67 1016.1
20260505025551 18 0.0 0.0 0.00 0.00 0.00 67 1016.0
20260505024516 18 0.0 0.0 0.00 0.00 0.00 67 1016.0
20260505023519 18 0.0 0.0 0.00 0.00 0.00 67 1015.8
20260505022522 18 0.0 0.0 0.00 0.00 0.00 66 1015.7
20260505021525 18 0.0 0.0 0.00 0.00 0.00 66 1015.6
20260505020528 18 0.0 0.0 0.00 0.00 0.00 65 1015.4
20260505015527 18 0.0 0.0 0.00 0.00 0.00 63 1015.4
20260505014516 18 0.0 0.0 0.00 0.00 0.00 63 1015.2
20260505013519 18 0.0 0.0 0.00 0.00 0.00 63 1015.1
20260505012517 18 0.0 0.0 0.00 0.00 0.00 64 1015.0
20260505011524 18 0.0 0.0 0.00 0.00 0.00 63 1014.8
20260505010527 19 0.0 0.0 0.00 0.00 0.00 61 1014.7
20260505005530 19 0.0 0.0 0.00 0.00 0.00 61 1014.5
20260505004533 20 0.0 0.0 0.00 0.00 0.00 60 1014.5
20260505003518 20 0.0 0.0 0.00 0.00 0.00 57 1014.4
20260505002520 21 0.0 0.0 0.00 0.00 0.00 54 1014.3
20260505001523 21 0.0 0.0 0.00 0.00 0.00 54 1014.3
20260505000526 22 0.0 0.0 0.00 0.00 0.00 52 1014.3
20260504235529 22 0.0 0.0 0.00 0.00 0.00 51 1014.3
20260504234533 23 0.0 0.0 0.00 0.00 0.00 49 1014.0
20260504233517 23 0.0 0.0 0.00 0.00 0.00 47 1014.2
20260504232520 23 0.0 0.0 0.00 0.00 0.00 47 1014.2
20260504231523 24 0.0 0.0 0.00 0.00 0.00 43 1014.2
20260504230527 25 0.0 0.0 0.00 0.00 0.00 42 1014.1
20260504225528 25 0.0 0.0 0.00 0.00 0.00 42 1014.2
20260504224525 25 0.0 0.0 0.00 0.00 0.00 40 1014.4
20260504223556 25 0.0 0.0 0.00 0.00 0.00 41 1014.4
20260504222519 25 0.0 0.0 0.00 0.00 0.00 40 1014.3
20260504221556 25 0.0 0.0 0.00 0.00 0.00 40 1014.3
20260504220525 26 0.0 0.0 0.00 0.00 0.00 38 1014.3
20260504215527 26 0.0 0.0 0.00 0.00 0.00 38 1014.1
20260504214552 25 0.0 0.0 0.00 0.00 0.00 37 1014.1
20260504213515 26 0.0 0.0 0.00 0.00 0.00 36 1014.2
20260504212520 26 0.0 0.0 0.00 0.00 0.00 38 1014.2
20260504211522 26 0.0 0.0 0.00 0.00 0.00 37 1014.1
20260504210524 27 0.0 0.0 0.00 0.00 0.00 35 1014.2
20260504205527 27 0.0 0.0 0.00 0.00 0.00 35 1014.4
20260504204531 27 0.0 0.0 0.00 0.00 0.00 36 1014.4
20260504203515 27 0.0 0.0 0.00 0.00 0.00 37 1014.4
20260504202518 27 0.0 0.0 0.00 0.00 0.00 36 1014.5
20260504201521 27 0.0 0.0 0.00 0.00 0.00 37 1014.5
20260504200524 28 0.0 0.0 0.00 0.00 0.00 32 1014.7
20260504195527 28 0.0 0.0 0.00 0.00 0.00 35 1014.8
20260504194549 28 0.0 0.0 0.00 0.00 0.00 36 1015.0
20260504193527 27 0.0 0.0 0.00 0.00 0.00 36 1015.1
20260504192517 27 0.0 0.0 0.00 0.00 0.00 37 1015.1
20260504191540 27 0.0 0.0 0.00 0.00 0.00 36 1015.2
20260504190537 27 0.0 0.0 0.00 0.00 0.00 35 1015.5